Starlink 31776

operational
NORAD ID: 59603 Int'l Des: 2024-080 Owner: SPXS Country: US Constellation: starlink
LEOCIRCULAR

About Starlink 31776

Description loading...

Live Position

Loading 3D Globe...

Upcoming Passes

Altitude History

Altitude vs Time

uPlot chart will show altitude changes over time

Two-Line Element Set

1 59603U 24080C 25352.11366229 -.00000722 00000-0 -16721-4 0 9998
2 59603 42.9984 142.3257 0001398 272.5216 87.5476 15.27581075 92011
Epoch: Dec 18, 2025 • Age: 11 hours

Current Status

Altitude 487.0 km
Velocity 7.63 km/s
Sub-Earth Point 42.45°N, 57.29°W
Launch Date Apr 28, 2024
Age 1.6 years
Type internet

Technical Details

Classification Payload
Mass 730.00 kg
Dry Mass 700.00 kg
Total Mass 730.00 kg
Length 0.30 m
Diameter 4.10 m
Span 29.00 m
Shape Box + pan
Manufacturer SPXS
Bus Type Starlink V2M
Phase Status In Orbit
Owner/State SPXS/US

Large Constellations

Loading constellations...